This demonstration page uses our WeatherBlox Daily Observations layout. Learn more.

39.29038, -76.61219

Hourly Observations for February 1, 2020

Temp ( °F °C ) Dew Point ( °F °C ) Humidity (%) Winds ( mph kmh ) Pressure ( in mb ) Visibility ( mi km ) Precip ( " mm )
12:54 am 00:54 undefined 38 3.3 35 1.7 89 89 undefined N/A 30.1 1019 N/A 0 0
1:54 am 01:54 undefined 38 3.3 35 1.7 89 89 undefined N/A 30.09 1019 N/A 0 0
2:54 am 02:54 undefined 37 2.8 34 1.1 89 89 undefined N/A 30.08 1019 N/A 0 0
3:54 am 03:54 undefined 36 2.2 33 0.6 89 89 undefined N/A 30.05 1018 N/A 0 0
4:54 am 04:54 undefined 36 2.2 33 0.6 89 89 undefined N/A 30.03 1017 N/A 0 0
5:54 am 05:54 undefined 35 1.7 32 0 89 89 undefined N/A 30.02 1017 N/A 0 0
6:54 am 06:54 undefined 35 1.7 32 0 89 89 undefined N/A 30.02 1017 N/A 0 0
7:54 am 07:54 undefined 35 1.7 34 1.1 96 96 undefined N/A 30.02 1017 N/A 0 0
8:54 am 08:54 undefined 37 2.8 34 1.1 89 89 undefined N/A 30.01 1016 N/A 0 0
9:54 am 09:54 undefined 39 3.9 35 1.7 86 86 undefined N/A 29.99 1016 N/A 0 0
10:54 am 10:54 undefined 41 5 35 1.7 79 79 undefined N/A 29.95 1014 N/A 0 0
11:54 am 11:54 undefined 44 6.7 35 1.7 71 71 undefined N/A 29.92 1013 N/A 0 0
12:54 pm 12:54 undefined 46 7.8 34 1.1 63 63 undefined N/A 29.87 1011 N/A 0 0
1:54 pm 13:54 undefined 48 8.9 36 2.2 63 63 undefined N/A 29.82 1010 N/A 0 0
2:54 pm 14:54 undefined 49 9.4 36 2.2 61 61 undefined N/A 29.8 1009 N/A 0 0
3:54 pm 15:54 undefined 47 8.3 37 2.8 69 69 undefined N/A 29.78 1009 N/A 0 0
4:54 pm 16:54 undefined 43 6.1 37 2.8 80 80 undefined N/A 29.79 1009 N/A 0 0
5:54 pm 17:54 undefined 44 6.7 38 3.3 79 79 undefined N/A 29.78 1009 N/A 0 0
6:54 pm 18:54 undefined 44 6.7 39 3.9 83 83 undefined N/A 29.79 1009 N/A 0.03 0.762
7:54 pm 19:54 undefined 43 6.1 37 2.8 80 80 undefined N/A 29.78 1008 N/A 0.02 0.508
8:54 pm 20:54 undefined 43 6.1 38 3.3 82 82 undefined N/A 29.77 1008 N/A 0.03 0.762
9:54 pm 21:54 undefined 42 5.6 38 3.3 85 85 undefined N/A 29.75 1008 N/A 0.03 0.762
10:54 pm 22:54 undefined 42 5.6 38 3.3 85 85 undefined N/A 29.74 1007 N/A 0 0
11:54 pm 23:54 undefined 42 5.6 38 3.3 85 85 undefined N/A 29.73 1007 N/A 0 0

Powered by AerisWeather